User: anonymous   Login
Location: Unspecified
(0.0000°N, 0.0000°E)
Time: 08:57:32
(UTC+00:00)
Language:

Cosmos 1574 - Orbit

View from above orbital plane
View from above orbital plane
View from above satellite
View from above satellite

Ground track
Ground track

The orbit data is extracted from the following two-line orbital elements,

1 15055U 84062A   17204.88778425 +.00000023 +00000-0 +82224-5 0  9997
2 15055 082.9593 318.4659 0028737 110.9262 025.1483 13.74288935659089
Epoch (UTC): 23 July 2017 21:18:24
Eccentricity: 0.0028737
inclination: 82.9593°
perigee height: 963 km
apogee height: 1005 km
right ascension of ascending node: 318.4659°
argument of perigee: 110.9262°
revolutions per day: 13.74288935
mean anomaly at epoch: 25.1483°
orbit number at epoch: 65908

The dashed part of the orbit path shows where the satellite is in the earth's shadow,  

DLR